Overview Statistics Trail Chart Weather Telemetry Raw packets
 

This is the latest recevied weather packets stored in our database for station/object VK4TW-13. If no packets are shown the sender has not sent any weather packets the latest 10 day(s).

<< 8 9 10 11 12 13 14 >>
Time Temp. Humidity Pressure Rain* Wind** Luminosity Snow
1788547400 17.22° C 100% 1020.5 hPa 0 mm - - -
1788546798 17.22° C 100% 1020.3 hPa 0 mm - - -
1788546196 17.22° C 100% 1020.3 hPa 0 mm - - -
1788545596 16.67° C 100% 1020.2 hPa 0 mm - - -
1788544994 16.67° C 100% 1020.1 hPa 0 mm - - -
1788544393 16.11° C 100% 1020.2 hPa 0 mm - - -
1788543793 16.11° C 100% 1020.2 hPa 0 mm - - -
1788543191 15.56° C 100% 1020 hPa 0 mm - - -
1788542590 15.56° C 100% 1020 hPa 0 mm - - -
1788542031 15.56° C 100% 1020 hPa 0 mm - - -
1788541990 15.56° C 100% 1020 hPa 0 mm - - -
1788541388 15.56° C 100% 1019.8 hPa 0 mm - - -
1788540788 16.11° C 100% 1019.8 hPa 0 mm - - -
1788540188 16.11° C 100% 1019.8 hPa 0 mm - - -
1788539586 16.11° C 100% 1019.7 hPa 0 mm - - -
1788538985 16.11° C 100% 1019.6 hPa 0 mm - - -
1788538385 16.11° C 100% 1019.6 hPa 0 mm - - -
1788537783 16.11° C 100% 1019.6 hPa 0 mm - - -
1788537182 16.11° C 100% 1019.6 hPa 0 mm - - -
1788536582 16.11° C 100% 1019.8 hPa 0 mm - - -
1788535980 16.67° C 100% 1019.9 hPa 0 mm - - -
1788535379 16.67° C 100% 1019.9 hPa 0 mm - - -
1788534779 16.67° C 100% 1019.9 hPa 0 mm - - -
1788534177 16.67° C 100% 1019.9 hPa 0 mm - - -
1788533576 16.67° C 100% 1019.9 hPa 0 mm - - -

* Rain since midnight (hover to see other rain measurements)
** Current wind speed in m/s (hover to see current wind gust speed)